STARLINK-11705, 63758

Orbit data source: Space-Track

STARLINK-11705, 63758 is a payload satellite owned by SpaceX/Seattle (US) in LEO that was launched on Tue, 29 Apr 2025 UTC via an FALCON 9 launch vehicle from the Air Force Eastern Test Range (AFETR). Payload-class satellites include a variety of spacecraft equipped with specific instruments for various scientific and technological missions. These include communications satellites like Starlink; space stations such as the ISS; scientific satellites like the Hubble; Earth observation satellites from companies like Planet Labs, Umbra, and HawkEye 360; GPS; miniature CubeSats for education and research; and military/defense satellites.

Loading next visibility...
Identifier
63758, 2025-089H
Orbit
LEO
Country
Flag of USUS
Related business
Manufacturer
SpaceX/Seattle
Mission
Operational Commercial Communications
Bus & Motor
STARLINK V2MD, Unknown motor
Mass
960 kg wet, ~910 kg dry
Launch date (UTC)
2025-04-29 (1 year ago)
Launch vehicle
FALCON 9
Launch site
Air Force Eastern Test Range (AFETR)
Object type
Payload
Rocket body
Debris
Shape & HBR
Box + 2 Pan, 18.1 m
Radar Cross Section
36.964 m², Large (>1 m²)

Expand to show TLE details & history
Last TLE update: 13 hours ago

TLE from 13 hours ago
0 STARLINK-11705
1 63758U 25089H   26171.31298378  .00145337  00000-0  11155-2 0  9999
2 63758  43.0014  33.8289 0001439 275.5007  84.5696 15.70859387 66226
Epoch: 2026-06-20T07:30Z
TLE epoch observation values (Epoch: 2026-06-20T07:30:41.798Z)
Latitude
-0.00006°
Longitude
12.62528°
Altitude
356.119 km
Speed
7.697 km/s
True Right ascension
02h 15m 18s
True Declination
0° 00' 00"
Sunlit
Object was in daylight at epoch
Visualization orbit readout
Latitude
Unknown
Longitude
Unknown
Altitude
Unknown
Speed
Unknown
Apparent Right ascension
Unknown
Apparent Declination
Unknown
Sunlit
N/A
Visualization observer readout
Local Sidereal Time
07:12:40
Azimuth
Unknown
Elevation
Unknown
Doppler factor
Unknown
Orbital elements
Apogee altitude
359.39 km
Perigee altitude
357.452 km
Semi-major axis
6,736.558 km
Eccentricity
0.00014
Inclination
43.0014°
RAAN
33.8289°
Arg. of periapsis
275.5007°
True anomaly
84.58602°
Mean anomaly
84.5696°
Eccentric anomaly
84.57781°
Mean motion
3.92542 °/min
Orbital period
91.71 mins
BSTAR
0.0011155
Loading maneuver chart data...
Computing Atmospheric mass density...
Loading historical data...
Loading historical data...
Loading historical data...
Loading historical data...
Loading historical data...
Loading historical data...
Loading historical data...

Documentation

Showing up to 5 results
|